Weather Roundup
Issued by NWS Springfield, MO

Home | Current Version | Previous Version | Text Only | Print | Product List | Glossary On
Versions: 1 2 3 4 5 6 7 8 9 10 11 12 13 14 15 16 17 18 19 20 21 22 23 24 25 26 27 28 29 30 31 32 33 34 35 36 37 38 39 40 41 42 43 44 45 46 47 48 49 50
000
NZUS99 KSGF 230159
HRRSGF

HOURLY WEATHER
NATIONAL WEATHER SERVICE SPRINGFIELD MO
800 PM CST SAT NOV 22 2014

......SGF CWA......

CITY           SKY/WX    TMP DP  RH WIND       PRES   REMARKS
SPRINGFIELD    MOCLDY    52  50  93 SE15      29.85F
JOPLIN         MOCLDY    52  50  93 S8        29.82F
WEST PLAINS    CLOUDY    52  48  86 S15G24    29.96S
ROLLA          LGT RAIN  52  49  89 S16G24    29.87F
OSAGE BEACH    PTCLDY    54  46  76 S9        29.87S
BRANSON        CLOUDY    54  52  94 S21       29.91F

......SURROUNDING SGF CWA......

CITY           SKY/WX    TMP DP  RH WIND       PRES   REMARKS
CHANUTE        CLOUDY    55  52  89 S17       29.77F
PARSONS        CLOUDY    56  53  90 S10       29.80F
COFFEYVILLE    CLOUDY    55  52  89 S14       29.79F
EMPORIA        CLOUDY    53  52  96 S17G24    29.72S
SILOAM SPRINGS CLOUDY    54  48  82 S12       29.89F
HARRISON AR    CLOUDY    52  52 100 S10       29.93F
NEAR YELLVILLE CLOUDY    52  46  82 NE5       29.95F

......KANSAS AND MISSOURI......

CITY           SKY/WX    TMP DP  RH WIND       PRES   REMARKS
KANSAS CTY INT CLOUDY    56  51  84 S17       29.73F
DOWNTOWN KC    CLOUDY    58  51  78 S13G26    29.75F
COLUMBIA       CLOUDY    54  51  90 S13       29.85F
SEDALIA        CLEAR     54  50  86 S15       29.82F
ST JOSEPH      CLOUDY    55  51  86 S20G26    29.70F
ST LOUIS       CLOUDY    54  50  86 S8        29.91F
SPIRIT OF STL  LGT RAIN  54  50  86 S8        29.90S
KIRKSVILLE     MOCLDY    52  50  93 S10       29.79F
WICHITA        CLOUDY    56  52  86 S17       29.71S
TOPEKA         CLOUDY    57  52  83 S17G25    29.71F
OLATHE         CLOUDY    55  51  86 S16G23    29.74F

......TENNESSEE......

CITY           SKY/WX    TMP DP  RH WIND       PRES   REMARKS
MEMPHIS        PTCLDY    60  42  51 S14       30.02F
NASHVILLE      PTCLDY    56  41  57 S8        30.13S

......ARKANSAS.......

CITY           SKY/WX    TMP DP  RH WIND       PRES   REMARKS
FAYETTEVILLE   CLOUDY    53  53 100 SE7       29.91F
FT SMITH       CLOUDY    53  51  93 E8        29.91F FOG
LITTLE ROCK    MOCLDY    60  52  74 SE7       29.96F

......OKLAHOMA.......

CITY           SKY/WX    TMP DP  RH WIND       PRES   REMARKS
TULSA          LGT RAIN  57  55  93 S23G37    29.78F
PONCA CITY     MOCLDY    55  52  89 S13       29.74F
MCALESTER      LGT RAIN  56  54  93 E5        29.85F
OKLAHOMA CITY  CLOUDY    57  52  83 SE13      29.74S

......IOWA............

CITY           SKY/WX    TMP DP  RH WIND       PRES   REMARKS
DES MOINES     CLOUDY    57  52  83 S16       29.67S
QUAD CITIES    CLOUDY    55  48  77 S12       29.78F

......ILLINOIS........

CITY           SKY/WX    TMP DP  RH WIND       PRES   REMARKS
QUINCY         MOCLDY    53  48  83 S13       29.84S
CHICAGO        CLOUDY    52  45  77 S16       29.85F



USA.gov is the U.S. government's official web portal to all federal, state and local government web resources and services.